Volver al catálogo

DMSP 5D-2 F14 DEB

ActivoSSO
NORAD 62939·DEBRIS·🇺🇸 United States

Lanzado Apr 4, 1997 desde Vandenberg Space Force Base

Loading…

Próximos Pases (próximas 24 horas)

TLE

ActualizadoSource: Space-Track

Época: Sep 14, 2026, 14:01 UTC

1 62939U 97012K   26257.58465328  .00001132  00000-0  56352-3 0  9992
2 62939  98.7956 307.7494 0011094 171.7125 188.4236 14.18992250 89705

Sigue DMSP 5D-2 F14 DEB en tiempo real con AllMySat

Download on the App Store